Thomasville, PA

9:23 AM EST on February 23, 2017 (GMT -0500)
York

Weather History for KTHV - March, 2014

Change the Weather History Date:

Saturday, March 15, 2014

  Actual Average Record
Temperature  
Mean Temperature 44 °F -  
Max Temperature 61 °F 0 °F 75 °F (2002)
Min Temperature 30 °F - 19 °F (2005)
Degree Days  
Heating Degree Days 20    
Moisture  
Dew Point 25 °F    
Average Humidity 39    
Maximum Humidity 82    
Minimum Humidity 24    
Precipitation  
Precipitation 0.00 in - - ()
Sea Level Pressure  
Sea Level Pressure 29.88 in    
Wind  
Wind Speed 11 mph (West)    
Max Wind Speed 22 mph    
Max Gust Speed 30 mph    
Visibility 10 miles    
Events Rain    
Averages and records for this station are not official NWS values.
T = Trace of Precipitation, MM = Missing Value Source: NWS Daily Summary

Daily Weather History Graph

Daily Weather History Graph

Search for Another Location

Airport or City:

Trip Planner

Search our weather history database for the weather conditions in past years. The results will help you decide how hot, cold, wet, or windy it might be!

Date:

Astronomy

Mar. 15, 2014 Rise Set
Actual Time 7:18 AM EDT 7:14 PM EDT
Civil Twilight 6:52 AM EDT 7:41 PM EDT
Nautical Twilight 6:20 AM EDT 8:12 PM EDT
Astronomical Twilight 5:48 AM EDT 8:44 PM EDT
Moon 6:31 PM EDT (3/15) 6:29 AM EDT (3/15)
Length of Visible Light 12h 49m
Length of Day
11h 55m
Waxing Gibbous, 99% of the Moon is Illuminated
Mar 15
Waxing Gibbous
Mar 16
Full
Mar 23
Last Quarter
Mar 30
New
Apr 7
First Quarter

Hourly Weather History & Observations

Time (EDT) Temp. Windchill Dew Point Humidity Pressure Visibility Wind Dir Wind Speed Gust Speed Precip Events Conditions
12:53 AM 48.0 °F - 21.9 °F 36% 29.83 in 10.0 mi ESE 3.5 mph - N/A   Mostly Cloudy
1:53 AM 52.0 °F - 19.9 °F 28% 29.80 in 10.0 mi SSW 16.1 mph 27.6 mph N/A   Overcast
2:53 AM 51.1 °F - 21.0 °F 31% 29.78 in 10.0 mi SSW 15.0 mph 24.2 mph N/A   Scattered Clouds
3:53 AM 50.0 °F - 21.0 °F 32% 29.76 in 10.0 mi SSW 16.1 mph - N/A   Scattered Clouds
4:53 AM 51.1 °F - 21.9 °F 32% 29.77 in 10.0 mi SSW 13.8 mph 21.9 mph N/A   Mostly Cloudy
5:53 AM 52.0 °F - 24.1 °F 34% 29.78 in 10.0 mi SSW 12.7 mph - N/A   Overcast
6:53 AM 48.9 °F - 28.9 °F 46% 29.82 in 10.0 mi WSW 10.4 mph - 0.00 in Rain Light Rain
7:53 AM 50.0 °F - 32.0 °F 50% 29.82 in 10.0 mi SSW 8.1 mph - 0.00 in   Overcast
8:53 AM 51.1 °F - 33.1 °F 50% 29.83 in 10.0 mi WSW 8.1 mph - N/A   Partly Cloudy
9:53 AM 53.1 °F - 33.1 °F 47% 29.85 in 10.0 mi WSW 13.8 mph 21.9 mph N/A   Clear
10:53 AM 55.9 °F - 30.9 °F 39% 29.86 in 10.0 mi West 18.4 mph 25.3 mph N/A   Partly Cloudy
11:53 AM 57.0 °F - 26.1 °F 30% 29.87 in 10.0 mi West 17.3 mph 29.9 mph N/A   Partly Cloudy
12:53 PM 59.0 °F - 25.0 °F 27% 29.87 in 10.0 mi West 16.1 mph 28.8 mph N/A   Mostly Cloudy
1:53 PM 59.0 °F - 27.0 °F 29% 29.87 in 10.0 mi WNW 16.1 mph 26.5 mph N/A   Clear
2:53 PM 59.0 °F - 24.1 °F 26% 29.87 in 10.0 mi WNW 13.8 mph 26.5 mph N/A   Clear
3:53 PM 59.0 °F - 21.9 °F 24% 29.88 in 10.0 mi WNW 20.7 mph 29.9 mph N/A   Partly Cloudy
4:53 PM 57.9 °F - 21.9 °F 25% 29.90 in 10.0 mi NW 21.9 mph 29.9 mph N/A   Clear
5:53 PM 55.9 °F - 21.9 °F 27% 29.93 in 10.0 mi WNW 13.8 mph 23.0 mph N/A   Clear
6:53 PM 52.0 °F - 23.0 °F 32% 29.96 in 10.0 mi NW 10.4 mph - N/A   Clear
7:53 PM 46.0 °F 42.5 °F 24.1 °F 42% 29.99 in 10.0 mi NW 6.9 mph - N/A   Clear
8:53 PM 41.0 °F 38.0 °F 24.1 °F 51% 30.01 in 10.0 mi NNW 4.6 mph - N/A   Clear
9:53 PM 34.0 °F 31.0 °F 25.0 °F 70% 30.04 in 10.0 mi WNW 3.5 mph - N/A   Clear
10:53 PM 30.0 °F 25.2 °F 25.0 °F 82% 30.06 in 10.0 mi West 4.6 mph - N/A   Clear
11:53 PM 39.9 °F 35.1 °F 26.1 °F 58% 30.07 in 10.0 mi NNW 6.9 mph - N/A   Clear